RH
26 24 20 22 23 20 18 17 18 18 18 18 19 18 18 17 14 17 20 20 14 9 9 17 15 18 23 22 17 17 23 25 21 45 50 65 56 56 52 56 65 72 73 82 98
36 28 23 20 22 23 20 18 18 18 18 19 20 19 19 17 13 22 20 19 16 18 18 17 16 17 21 22 18 17 24 19 17 45 65 63 59 56 56 64 96 100 100 99 99
61 41 29 23 20 23 22 20 19 19 19 20 22 21 20 17 13 22 22 20 19 18 16 15 15 16 20 20 19 16 20 18 42 49 57 61 64 57 56 56 92 98 100 100 100
74 67 44 30 22 23 23 21 20 20 20 22 23 23 20 18 20 23 23 20 20 19 15 16 18 20 23 23 17 16 15 21 47 51 56 64 54 56 54 51 62 61 92 94 90
86 75 66 43 31 24 25 22 21 21 23 26 25 24 21 21 11 14 19 22 19 16 16 16 22 23 25 20 18 18 28 24 43 51 48 48 50 52 63 76 70 76 69 98 86
96 86 75 63 42 28 24 24 22 22 25 28 28 25 24 35 15 21 23 25 21 18 16 18 19 20 23 22 21 46 52 55 50 50 54 47 49 43 51 78 99 73 95 82 64
77 93 87 76 57 37 24 23 22 24 28 29 29 26 24 13 10 24 22 24 26 27 26 22 22 22 23 23 23 38 48 45 44 48 48 49 44 52 55 77 88 83 77 79 63
75 84 88 83 70 48 29 21 21 24 31 30 29 26 18 11 11 18 20 22 25 25 25 25 24 23 23 22 24 26 35 50 43 45 38 41 43 47 60 82 100 96 90 80 65
80 67 85 88 79 59 34 21 20 23 31 31 29 30 21 17 21 16 20 21 22 20 20 21 24 23 24 32 32 27 32 36 33 41 39 40 34 35 53 71 95 93 89 86 73
70 68 92 82 85 66 39 20 20 27 36 52 43 42 12 21 23 21 15 21 20 20 23 24 23 36 38 33 38 32 29 24 28 31 37 41 39 36 49 64 80 84 83 83 75
60 90 77 94 93 70 39 20 34 58 63 41 27 17 16 17 22 21 20 16 18 23 33 29 37 40 34 29 33 35 32 34 29 23 34 38 39 33 41 49 64 85 88 86 74
60 89 83 100 98 73 38 24 43 60 56 34 32 39 31 38 39 21 20 18 21 28 31 33 40 33 29 34 32 35 39 40 31 26 38 41 41 33 46 50 53 67 79 76 71
46 90 92 92 100 74 34 35 72 60 57 42 37 36 26 28 34 24 20 18 21 27 32 37 30 30 31 35 32 33 40 41 38 30 32 30 32 30 36 44 46 54 55 63 49
30 88 100 95 96 71 32 79 58 44 65 48 58 38 29 25 25 20 20 18 22 26 34 35 32 31 33 33 32 39 35 37 38 29 32 26 38 36 36 45 41 42 54 55 44
38 77 100 99 70 44 69 74 55 66 44 22 46 33 28 20 18 20 17 18 30 34 32 32 37 36 33 30 29 34 32 33 35 36 34 34 36 31 31 41 44 39 38 42 40
52 76 100 99 99 46 74 64 65 80 57 35 36 38 31 20 19 19 19 19 18 30 32 26 30 30 29 29 31 30 36 42 47 48 50 37 37 39 37 30 33 35 37 34 36
62 68 100 100 97 78 42 66 90 92 34 40 35 29 31 27 22 21 20 24 30 35 34 32 30 27 31 29 30 34 41 53 55 67 56 41 44 40 28 30 28 32 36 34 30
69 65 97 99 100 69 68 89 96 62 62 42 25 28 28 28 26 27 24 26 21 27 41 40 39 29 27 28 33 40 38 57 42 68 60 43 50 39 32 36 31 25 26 31 32
75 76 94 97 99 79 87 88 78 61 45 29 26 30 30 28 27 24 28 28 24 26 29 45 38 41 42 32 29 36 47 37 60 68 82 53 37 35 34 36 41 34 38 35 35
87 90 85 97 100 96 97 78 66 55 49 49 33 31 37 33 30 30 32 25 22 24 23 33 35 41 41 36 35 34 37 48 61 46 48 41 41 45 38 34 39 54 45 42 40
100 95 76 94 99 97 90 77 61 47 46 57 53 39 33 34 33 36 29 24 24 24 25 39 36 36 41 42 37 38 39 38 48 55 57 66 50 32 39 35 38 38 43 46 46
99 94 74 83 99 81 81 66 50 44 41 51 52 54 40 34 35 34 34 25 18 32 32 38 46 49 37 34 36 33 36 41 64 43 62 75 49 26 34 39 36 35 33 34 41
89 84 94 87 94 89 68 64 58 49 52 49 54 48 46 35 32 36 35 24 26 34 40 43 49 56 42 40 42 45 42 42 52 60 61 70 52 28 30 32 30 32 32 38 47
79 93 99 99 74 69 74 75 69 54 54 51 53 49 45 40 31 32 35 38 37 31 29 30 49 46 51 40 36 37 33 35 44 71 52 60 40 30 29 30 27 27 25 27 41
91 65 72 88 90 77 63 66 71 65 56 48 53 53 52 52 38 36 46 42 39 38 38 40 45 38 38 33 31 29 31 40 42 43 48 41 46 36 33 28 27 24 24 26 27
80 76 76 81 69 77 65 64 68 63 53 55 48 49 46 54 44 36 47 45 42 39 38 44 44 34 43 43 38 37 35 33 35 32 43 39 38 33 29 32 32 29 26 34 37
70 83 75 71 72 74 73 62 59 53 52 43 42 42 44 52 45 38 31 35 37 46 48 47 60 62 48 49 45 60 47 38 34 33 32 39 35 36 42 47 45 39 37 35 36
Wind_Speed
14 15 15 15 16 17 17 18 18 19 20 22 23 24 25 25 21 16 5 7 2 5 6 3 3 3 4 2 7 6 4 3 5 2 3 4 3 3 3 2 3 3 8 19 22
15 15 15 15 15 16 16 17 17 18 20 21 22 23 23 23 17 3 7 7 3 5 4 4 0 2 2 1 3 4 4 7 6 3 5 7 5 3 4 5 7 18 22 25 25
16 15 15 15 15 16 16 16 17 18 19 21 22 21 20 19 11 1 5 6 4 4 4 2 3 2 2 2 6 4 5 6 5 7 10 8 2 1 4 2 9 25 29 28 24
17 16 16 16 16 16 16 16 16 17 19 20 21 19 17 14 1 2 5 4 3 3 2 4 3 1 2 3 4 3 11 11 7 11 10 6 3 3 1 2 16 21 26 27 26
19 17 16 16 17 16 16 16 15 16 18 19 20 18 15 9 8 7 3 4 1 1 2 4 1 1 2 6 8 3 6 7 12 13 5 6 6 4 8 16 25 25 22 29 26
21 19 17 17 17 17 17 15 15 16 17 19 18 16 13 6 2 4 4 1 1 1 1 3 3 7 6 5 2 4 15 8 12 8 4 2 2 3 9 21 23 26 25 28 24
24 21 19 18 18 18 18 16 15 16 17 18 16 15 17 16 6 9 8 5 4 3 7 6 6 6 10 6 6 5 6 5 2 5 2 2 1 3 6 23 25 25 27 30 29
25 23 20 19 19 19 19 17 16 17 17 17 14 14 11 8 11 12 9 7 5 5 8 10 13 9 4 6 4 4 4 3 5 2 3 7 4 4 22 27 23 26 27 31 37
25 23 22 19 19 19 20 17 17 18 18 15 13 9 11 3 5 12 12 12 7 7 12 10 8 4 2 2 4 2 4 2 3 9 2 4 2 7 23 22 21 25 26 32 36
25 23 21 20 18 19 19 17 16 16 15 13 13 8 9 3 3 5 13 15 10 6 1 0 2 2 3 4 1 2 4 1 5 1 3 5 7 4 23 21 20 25 28 30 34
23 21 19 18 18 18 17 12 9 7 8 10 2 7 11 8 7 5 7 14 11 2 3 1 3 4 7 6 3 3 4 7 8 12 9 9 5 5 17 19 15 22 27 33 33
23 20 19 17 17 15 13 8 4 3 12 18 23 29 27 22 8 10 7 7 7 5 3 4 4 7 4 2 4 2 2 7 9 6 8 5 9 5 8 13 28 29 30 35 35
22 21 19 17 16 15 12 6 8 12 6 13 17 19 25 16 10 14 9 8 4 5 5 6 5 1 3 3 3 3 4 5 7 6 3 3 4 5 5 9 22 28 38 38 40
22 22 19 17 14 15 9 1 3 4 2 6 5 8 15 11 6 21 11 9 1 9 6 5 3 5 2 5 4 5 6 4 2 2 3 3 4 4 7 11 12 22 30 37 43
21 23 21 20 10 9 8 1 5 3 3 4 5 5 18 19 1 10 21 8 8 5 6 6 6 5 5 7 5 6 3 2 2 3 1 3 3 5 5 8 14 22 28 40 46
22 23 23 24 24 11 8 1 9 4 7 3 9 7 7 7 2 2 12 10 5 5 2 4 2 4 6 4 3 3 4 5 3 2 2 3 3 5 5 15 15 21 30 40 46
24 24 27 26 26 17 12 8 3 4 5 5 6 6 6 7 3 2 6 6 6 4 3 1 3 2 2 2 3 5 5 3 4 4 5 4 2 8 5 7 8 15 31 39 45
26 24 29 30 26 14 12 3 8 7 6 5 4 5 8 5 5 6 6 5 4 4 4 5 5 4 1 3 4 2 6 5 4 2 4 3 4 6 5 9 5 17 30 37 39
25 26 31 34 29 16 8 12 8 7 4 4 4 5 4 5 6 4 8 8 9 8 8 5 4 2 3 2 3 1 2 3 6 3 3 3 6 9 7 3 4 8 17 20 32
27 24 36 35 31 22 5 14 6 6 4 4 8 6 8 7 7 7 8 5 6 10 7 7 1 3 1 2 5 4 4 3 2 2 3 4 4 5 6 7 0 5 14 19 24
27 11 20 34 30 16 12 9 7 16 7 3 3 1 7 8 9 6 7 5 7 5 6 5 5 2 2 5 6 2 3 3 4 4 4 1 5 6 7 7 7 4 10 16 20
30 6 24 37 11 10 14 8 9 22 12 3 3 4 4 8 8 9 10 8 14 12 10 7 6 5 10 2 3 4 7 5 4 4 1 4 6 4 9 8 9 13 9 11 17
23 18 30 36 11 12 9 16 9 9 6 7 5 1 4 4 5 7 7 7 10 8 9 8 1 2 7 5 3 5 5 4 5 4 6 5 6 3 7 8 17 17 18 16 22
15 9 14 29 37 18 17 13 17 21 15 3 3 2 1 3 3 4 6 2 4 10 13 13 4 7 6 8 3 3 3 5 5 3 4 6 6 6 8 7 7 18 20 17 24
18 12 16 12 21 16 16 11 20 10 18 19 5 7 3 3 4 4 3 3 2 7 3 5 6 5 4 3 4 3 4 6 6 5 6 6 7 8 6 8 12 15 9 10 16
18 10 21 5 26 24 19 19 20 18 6 8 12 7 9 10 7 3 4 4 5 3 4 2 3 3 3 2 2 4 6 4 4 3 6 5 6 4 1 6 12 6 8 6 4
45 15 15 10 18 19 26 21 19 18 19 21 16 13 9 13 16 21 19 8 6 10 7 5 6 4 5 2 2 6 8 8 6 5 5 6 8 3 4 8 10 12 11 10 9
Wind_Direction
297 299 300 296 293 294 298 303 310 315 318 320 323 326 326 325 329 322 358 337 330 204 219 225 279 274 325 208 203 179 89 236 255 182 240 180 169 170 47 38 43 17 150 151 153
293 297 299 301 299 295 298 302 309 313 316 319 324 326 327 328 331 14 25 4 280 244 236 255 316 301 311 256 212 149 140 218 201 200 197 185 209 153 143 166 59 82 119 139 151
285 291 295 298 300 300 299 302 307 312 315 318 323 326 328 328 328 25 14 10 328 261 245 253 323 325 283 272 222 195 210 212 210 194 180 172 263 132 143 186 157 140 141 150 156
276 284 291 297 300 301 299 301 306 310 314 317 320 325 327 324 329 237 354 354 347 240 207 73 71 67 313 286 259 243 233 192 164 159 165 179 143 72 252 245 173 157 156 160 157
269 277 285 291 297 302 300 300 303 307 311 315 318 322 327 308 270 247 305 353 69 204 110 123 271 266 287 296 297 217 329 204 164 162 194 147 112 122 111 135 150 147 163 163 156
261 269 278 286 292 297 298 297 300 303 307 312 315 316 315 283 186 181 196 101 21 337 114 199 297 316 290 271 37 38 82 71 127 161 220 106 86 123 162 158 153 155 161 170 162
255 261 272 280 288 293 295 293 294 297 302 307 309 311 298 268 207 199 204 209 225 277 295 309 331 311 316 301 78 114 63 40 289 165 193 147 238 250 173 169 162 167 173 173 176
255 256 264 274 283 290 293 295 293 294 298 299 301 304 268 271 228 217 227 221 230 267 288 288 310 292 266 308 58 106 45 95 261 137 267 154 287 169 150 156 160 171 175 179 179
253 257 257 267 278 287 293 297 291 291 289 286 290 286 268 241 268 220 235 231 240 287 288 289 295 259 345 64 6 41 139 195 270 198 154 138 220 195 167 160 164 168 177 188 190
249 251 252 261 274 284 295 301 296 288 276 270 257 285 253 165 305 202 227 237 261 323 81 142 242 57 34 77 150 325 4 39 338 190 201 192 245 153 175 180 171 180 187 195 201
241 244 251 258 267 281 297 312 300 274 249 228 234 247 278 286 293 193 202 219 226 150 162 89 53 208 184 167 155 55 0 314 272 261 203 219 226 212 186 187 180 185 190 199 205
235 237 241 254 262 276 291 291 318 351 301 267 258 256 258 264 294 216 196 179 155 195 124 31 235 238 150 89 108 107 206 276 286 321 186 178 229 218 185 193 196 196 197 206 208
232 229 235 245 259 268 275 284 269 253 273 283 246 238 237 228 228 238 200 190 139 156 193 169 237 203 219 187 175 227 209 248 235 333 323 121 305 189 202 193 205 207 210 205 207
229 225 226 238 257 257 255 158 298 194 322 267 222 234 180 155 244 235 207 184 123 200 162 221 265 198 177 240 180 266 200 253 250 81 228 154 257 268 182 192 200 202 203 206 206
226 218 217 226 226 213 171 105 157 140 321 230 177 172 166 164 209 210 203 204 154 168 123 245 186 186 219 237 160 245 240 313 224 234 327 269 91 262 132 206 211 209 204 206 208
220 214 212 226 231 203 194 271 153 62 249 272 150 158 140 186 233 142 169 193 196 135 159 223 213 186 209 257 191 196 67 30 72 69 21 271 132 282 194 212 222 213 209 211 211
216 211 209 223 230 229 229 162 126 199 321 217 178 158 168 164 195 193 149 156 154 116 190 103 236 242 208 243 350 81 61 342 352 13 220 10 39 237 280 266 218 213 210 212 213
210 210 211 219 223 220 198 165 211 217 241 299 144 114 179 153 227 187 138 179 260 118 127 165 303 176 209 235 170 132 144 165 224 212 271 346 251 256 239 320 239 234 218 217 212
210 214 218 215 213 207 197 205 195 215 214 249 84 131 228 199 162 160 184 188 192 179 157 144 247 282 202 319 120 179 174 177 101 24 66 252 293 317 329 86 89 162 181 200 213
209 215 217 209 209 210 224 220 202 221 355 345 192 177 174 195 159 157 183 206 203 191 153 204 188 188 305 55 287 176 175 66 22 172 251 284 286 241 302 297 151 169 196 197 201
201 213 217 206 209 180 219 214 221 250 284 330 329 220 208 170 179 174 203 242 199 193 136 139 126 248 131 192 204 162 241 85 125 142 172 217 265 217 243 250 266 270 197 201 197
189 214 193 197 188 197 219 174 219 241 258 306 301 244 226 185 173 192 199 205 205 150 161 204 149 177 205 194 188 194 189 145 131 236 196 157 269 248 235 240 241 251 238 218 207
189 201 183 189 200 206 215 211 235 223 198 212 241 271 6 213 176 185 196 225 187 155 162 182 174 69 334 13 18 225 191 157 117 83 196 148 254 289 255 228 234 241 242 223 211
188 186 176 188 214 194 194 199 209 228 251 321 300 294 284 288 229 200 206 148 191 194 193 137 141 160 190 216 167 209 237 166 144 128 195 221 266 276 244 249 262 234 237 234 223
206 204 184 187 206 198 187 198 202 211 204 207 266 226 176 318 312 178 154 132 53 151 103 131 163 162 217 194 185 232 216 174 180 207 163 247 204 261 262 254 265 248 215 227 229
197 199 173 218 194 200 191 204 198 207 214 204 221 187 205 218 222 282 149 176 184 179 150 285 170 123 119 61 43 236 245 236 229 210 259 255 257 253 324 79 68 117 168 139 141
201 209 191 196 184 195 208 196 199 202 217 237 213 227 226 234 239 261 263 259 201 160 173 139 133 114 225 61 21 321 218 217 228 209 184 206 224 158 61 64 74 95 99 102 100